Regional Weather Roundup
Issued by NWS

Home | Current Version | Previous Version | Text Only | Print | Product List | Glossary Off
Versions: 1 2 3 4 5 6 7 8 9 10 11 12 13 14 15 16 17 18 19 20 21 22 23 24 25 26 27 28 29 30 31 32 33 34 35 36 37 38 39 40 41 42 43 44 45 46 47 48 49 50

000
ASUS43 KDMX 281007
RWRIA

WEATHER ROUNDUP FOR IOWA
NATIONAL WEATHER SERVICE DES MOINES IA
400 AM CST WED JAN 28 2015

NOTE: "FAIR" INDICATES FEW OR NO CLOUDS BELOW 12,000 FEET WITH NO
SIGNIFICANT WEATHER AND/OR OBSTRUCTIONS TO VISIBILITY.

* - THESE STATIONS ARE NOT NWS STATIONS...THUS NOT UNDER NWS
QUALITY CONTROL.  THEY ALSO DO NOT REPORT WEATHER SUCH
AS PRECIPITATION OR FOG.

IAZ001>003-012>014-020>022-031>034-043>046-281100-
   NORTHWEST IOWA

CITY           SKY/WX    TMP DP  RH WIND       PRES   REMARKS
CARROLL *      CLOUDY    30  30 100 SE15      30.00S FOG     WCI  19
CHEROKEE *     CLEAR     30  30 100 SE7       29.95F WCI  23
DENISON *      CLEAR     32  32 100 SE7       29.94F WCI  26
LE MARS *      CLEAR     34  32  93 SE9       29.91F WCI  26
ORANGE CITY *  CLEAR     32  30  93 SE8       29.90F WCI  25
SHELDON *      CLEAR     32  32 100 SE16      29.90F WCI  21
SIOUX CITY     MOCLDY    32  29  88 SE10      29.91F WCI  24
SPENCER        CLOUDY    31  28  89 SE16      29.96F FOG     WCI  20
STORM LAKE *   CLOUDY    30  30 100 SE21      29.96F FOG     WCI  17
$$

IAZ055>058-069>071-079>083-090>094-281100-
   SOUTHWEST IOWA

CITY           SKY/WX    TMP DP  RH WIND       PRES   REMARKS
ATLANTIC *     CLEAR     34  30  86 SE8       29.98S WCI  27
AUDUBON *      CLEAR     32  28  86 SE9       29.99S WCI  24
CLARINDA *     CLEAR     36  30  80 SE9G15    29.98F WCI  29
COUNCIL BLFS * CLEAR     34  32  93 SE12      29.91F WCI  25
CRESTON *      MOCLDY    30  30 100 SE16      30.00F FOG     WCI  19
HARLAN  *      CLEAR     34  34 100 SE10      29.99F WCI  26
LAMONI         CLEAR     30  28  92 SE9       30.03F WCI  22
RED OAK *      CLEAR     36  30  80 SE8       29.96F WCI  29
SHENANDOAH *   CLEAR     36  32  87 SE9       29.96S WCI  29
$$

IAZ047>049-059>061-072>074-084-281100-
   CENTRAL IOWA

CITY           SKY/WX    TMP DP  RH WIND       PRES   REMARKS
AMES           CLOUDY    29  28  96 SE10      30.07F FOG     WCI  20
ANKENY *       CLOUDY    30  30 100 SE13G20   30.08S FOG     WCI  20
CHARITON *     CLOUDY    30  28  93 SE15      30.06F FOG     WCI  19
DES MOINES     CLOUDY    31  27  85 SE12      30.07F FOG     WCI  22
GRINNELL*      CLOUDY    28  28 100 SE12G18   30.11S FOG     WCI  18
KNOXVILLE *    CLOUDY    30  28  93 SE14G20   30.07F FOG     WCI  20
MARSHALLTOWN   CLOUDY    28  27  96 SE15      30.09F FOG     WCI  16
PELLA *        CLOUDY    30  28  93 SE10G23   30.11F FOG     WCI  21
PERRY *          N/A     30  30 100 SE17      30.03F FOG     WCI  18
$$

IAZ004>006-015-016-023>025-035-036-281100-
   NORTH CENTRAL IOWA

CITY           SKY/WX    TMP DP  RH WIND       PRES   REMARKS
ALGONA *       CLOUDY    30  30 100 SE21      30.01F FOG     WCI  17
CLARION *      FOG       30  30 100 SE21      30.04F VSB 1   WCI  17
ESTHERVILLE    CLOUDY    30  29  96 SE21      29.97F FOG     WCI  17
FORT DODGE *   CLOUDY    30  27  86 SE12      30.03F WCI  21
MASON CITY     CLOUDY    27  27 100 SE18      30.08F FOG     WCI  14
FOREST CITY *  CLOUDY    30  28  93 SE14G20   30.04F FOG     WCI  20
IOWA FALLS *   FOG       28  28 100 SE15      30.08F VSB 1   WCI  17
$$

IAZ007>011-017>019-026>030-037>042-050>054-066-281100-
   NORTHEAST IOWA

CITY           SKY/WX    TMP DP  RH WIND       PRES   REMARKS
CEDAR RAPIDS   CLOUDY    26  25  96 SE10      30.15F FOG     WCI  16
CHARLES CITY * CLOUDY    27  27 100 SE16      30.11F FOG     WCI  14
CLINTON *      CLOUDY    27  23  86 S10       30.23F WCI  17
DECORAH *      CLOUDY    25  23  93 SE12      30.12F FOG     WCI  14
DUBUQUE        CLOUDY    25  22  88 S15       30.17S FOG     WCI  13
MONTICELLO *   CLOUDY    25  27 100 SE12      30.18F FOG     WCI  14
OELWEIN *      CLOUDY    25  25 100 SE14      30.14S FOG     WCI  13
WATERLOO       CLOUDY    27  25  92 SE12      30.13S FOG     WCI  17
$$

IAZ064-065-067-068-078-281100-
   EAST CENTRAL IOWA

CITY           SKY/WX    TMP DP  RH WIND       PRES   REMARKS
DAVENPORT      CLOUDY    27  23  85 S12       30.20F WCI  17
IOWA CITY      CLOUDY    27  26  96 SE14      30.19F FOG     WCI  16
MT. PLEASANT * CLOUDY    30  28  93 SE10      30.18F FOG     WCI  21
MUSCATINE *    CLOUDY    30  27  86 SE9G17    30.21S WCI  22
QUAD CITIES    CLOUDY    29  24  82 SE8       30.20F WCI  21
$$

IAZ062-063-075>077-085>089-095>099-281100-
   SOUTHEAST IOWA

CITY           SKY/WX    TMP DP  RH WIND       PRES   REMARKS
BURLINGTON     CLOUDY    30  28  92 S10       30.19F FOG     WCI  21
FAIRFIELD *    CLOUDY    30  28  93 SE16      30.15F FOG     WCI  19
FORT MADISON * CLOUDY    28  28 100 SE8       30.20S FOG     WCI  20
KEOKUK *       PTCLDY    28  28 100 SE9       30.17F FOG     WCI  20
OSKALOOSA *    CLOUDY    28  28 100 SE17      30.12F FOG     WCI  16
CENTERVILLE *  CLOUDY    28  28 100 SE15G22   30.09F WCI  17
OTTUMWA        CLOUDY    29  28  96 SE14      30.12F FOG     WCI  18
WASHINGTON *   CLOUDY    30  30 100 SE16      30.16F FOG     WCI  19
$$

ABBREVIATIONS USED IN REMARKS
   TC - TEMPERATURES IN CELSIUS
  WCI - WIND CHILL INDEX
   HX - HEAT INDEX
  VSB - VISIBILITY
$$



USA.gov is the U.S. government's official web portal to all federal, state and local government web resources and services.